DELTA 1 DEB, 7073

Orbit data source: Space-Track

DELTA 1 DEB, 7073 is space debris in SSO originally from a launch on Tue, 06 Nov 1973 UTC launched from the Air Force Western Test Range (AFWTR). Debris objects in space refer to the collection of defunct objects orbiting the Earth. Examples of debris include non-operational satellites, rocket bodies, and fragments generated from explosions, collisions, or faulty payload assembly.

Loading next visibility...
Identifier
7073, 1973-086BR
Orbit
SSO
Country
Flag of USUS
Related business
Manufacturer
Unknown
Mission
Spacecraft
Bus & Motor
Unknown
Mass
Unknown
Launch date (UTC)
1973-11-06 (53 years ago)
Launch vehicle
Unknown
Launch site
Air Force Western Test Range (AFWTR)
Object type
Payload
Rocket body
Debris
Shape & HBR
Unknown shape, 0.2 m
Radar Cross Section
Medium (>0.1 m² and <1 m²)

Expand to show TLE details & history
Last TLE update: 10 hours ago

TLE from 10 hours ago
0 DELTA 1 DEB
1 07073U 73086BR  26264.35459601 -.00000027  00000-0  16368-3 0  9991
2 07073 102.5311 231.1175 0063685 206.4183 323.0692 12.28475779370685
Epoch: 2026-09-21T08:30Z
TLE epoch observation values (Epoch: 2026-09-21T08:30:37.095Z)
Latitude
10.64612°
Longitude
-74.38983°
Altitude
1,517.327 km
Speed
7.125 km/s
True Right ascension
03h 34m 00s
True Declination
10° 35' 23"
Sunlit
Object was in daylight at epoch
Visualization orbit readout
Latitude
Unknown
Longitude
Unknown
Altitude
Unknown
Speed
Unknown
Apparent Right ascension
Unknown
Apparent Declination
Unknown
Sunlit
N/A
Visualization observer readout
Local Sidereal Time
11:58:21
Azimuth
Unknown
Elevation
Unknown
Doppler factor
Unknown
Orbital elements
Apogee altitude
1,603.971 km
Perigee altitude
1,502.946 km
Semi-major axis
7,931.596 km
Eccentricity
0.00637
Inclination
102.5311°
RAAN
231.1175°
Arg. of periapsis
206.4183°
True anomaly
322.62791°
Mean anomaly
323.0692°
Eccentric anomaly
322.84884°
Mean motion
3.07257 °/min
Orbital period
117.17 mins
BSTAR
0.00016368
Loading maneuver chart data...
Computing Atmospheric mass density...
Loading historical data...
Loading historical data...
Loading historical data...
Loading historical data...
Loading historical data...
Loading historical data...
Loading historical data...

Documentation

Showing up to 5 results
|